Other Surface Observations
Issued by NWS Upton, NY

Home | Current Version | Previous Version | Text Only | Print | Product List | Glossary On
Versions: 1 2 3 4 5 6 7 8 9 10 11 12 13 14 15 16 17 18 19 20 21 22 23 24 25 26 27 28 29 30 31 32 33 34 35 36 37 38 39 40 41 42 43 44 45 46 47 48 49 50
000
SXUS51 KOKX 281857
OSOOKX
New York City Metropolitan Area Weather Roundup
National Weather Service New York NY
300 PM EDT WED JUL 28 2021

CITY           SKY/WX    TMP DP  RH WIND       PRES   REMARKS
Central Park   MOSUNNY   79  59  50 VRB6      30.02F
LaGuardia Arpt MOSUNNY   81  58  45 E9        29.98F
Kennedy Intl   MOSUNNY   81  59  47 VRB3      29.99F
Newark Liberty MOSUNNY   84  61  45 VRB7      29.98F
Teterboro Arpt PTSUNNY   79  60  52 CALM      29.98F
Bronx Lehman C   N/A     81  57  44 NE5         N/A
Queens College   N/A     79  61  53 N6          N/A
Breezy Point     N/A     79 N/A N/A NE5         N/A
Brooklyn Coll    N/A     81  55  41 N10         N/A
Staten Island    N/A     81  59  47 N7          N/A

>>>>>>>>>>>>>>>>>>>>>>>>>>>>>>>>> KEY <<<<<<<<<<<<<<<<<<<<<<<<<<<<<<<
> SKY/WX - Sky Condition/Present    : R : WCI - Wind Chill Index    <
>          Weather                  : E : VSB - Visibility in Miles <
> TMP    - Temperature in Deg F     : M : HX  - Heat Index          <
> DP     - Dew Point Temperature    : A : TC  - Temperature in      <
> RH     - Relative Humidity        : R :       Celsius             <
> WIND   - Direction/Speed (mph)    : K : VRB - Variable Wind Dir   <
> PRES   - Pressure (in Hg)         : S :                           <
>>>>>>>>>>>>>>>>>>>>>>>>>>>>>>>>> KEY <<<<<<<<<<<<<<<<<<<<<<<<<<<<<<<



USA.gov is the U.S. government's official web portal to all federal, state and local government web resources and services.